Showing default

TANSUO 1, 28220

Orbit data source: Space-Track

TANSUO 1, 28220 is a payload satellite owned by CASC (CN) in SSO that was launched on Sun, 18 Apr 2004 UTC via a CHANG ZHENG 2C launch vehicle from the Xichang Space Center, China (XSC). Payload-class satellites include a variety of spacecraft equipped with specific instruments for various scientific and technological missions. These include communications satellites like Starlink; space stations such as the ISS; scientific satellites like the Hubble; Earth observation satellites from companies like Planet Labs, Umbra, and HawkEye 360; GPS; miniature CubeSats for education and research; and military/defense satellites.

Loading next visibility...
Identifier
28220, 2004-012A
Orbit
SSO
Country
Flag of CNCN / PRC
Related business
Manufacturer
DFH/HARB
Mission
Operational Civil Imaging
Bus & Motor
SY, Unknown motor
Mass
204 kg wet, 204 kg dry
Launch date (UTC)
2004-04-18 (21 years ago)
Launch vehicle
CHANG ZHENG 2C
Launch site
Xichang Space Center, China (XSC)
Object type
Payload
Rocket body
Debris
Shape & HBR
Box + 1 Pan, 1.5 m
Radar Cross Section
2.043 m², Large (>1 m²)

Expand to show TLE details & history
Last TLE update: 15 hours ago

TLE from 15 hours ago
0 TANSUO 1
1 28220U 04012A   25286.44246541  .00019564  00000-0  76298-3 0  9994
2 28220  97.9024 344.5001 0007308 157.8429 202.3125 15.25962664173369
Epoch: 2025-10-13T10:37Z
TLE epoch observation values (Epoch: 2025-10-13T10:37:09.011Z)
Latitude
-0.00003°
Longitude
162.96737°
Altitude
495.624 km
Speed
7.614 km/s
True Right ascension
22h 58m 00s
True Declination
0° 00' 00"
Sunlit
Object was in full shadow at epoch
Visualization orbit readout
Latitude
Unknown
Longitude
Unknown
Altitude
Unknown
Speed
Unknown
Apparent Right ascension
Unknown
Apparent Declination
Unknown
Sunlit
N/A
Visualization observer readout
Local Sidereal Time
19:42:32
Azimuth
Unknown
Elevation
Unknown
Doppler factor
Unknown
Orbital elements
Apogee altitude
489.892 km
Perigee altitude
479.861 km
Semi-major axis
6,863.013 km
Eccentricity
0.00073
Inclination
97.9024°
RAAN
344.5001°
Arg. of periapsis
157.8429°
True anomaly
202.28073°
Mean anomaly
202.3125°
Eccentric anomaly
202.29661°
Mean motion
3.81743 °/min
Orbital period
94.3 mins
BSTAR
0.00076298
Loading maneuver chart data...
Computing Atmospheric mass density...
Loading historical data...
Loading historical data...
Loading historical data...
Loading historical data...
Loading historical data...
Loading historical data...
Loading historical data...

Documentation

Showing up to 5 results
|